FW7006 Weather Reports


time (UTC)temp
C
wind
direction
speed
KPH
gust
KPH
rain 1hr
cm
rain 24hr
cm
rain mn
cm
humidity
%
barometer
mb
20260508231347 13 75 0.0 3.2 0.05 0.00 0.00 94 1007.6
20260508230843 13 263 3.2 6.4 0.00 0.00 0.00 93 1007.5
20260508230340 13 278 1.6 6.4 0.00 0.00 0.00 93 1007.5
20260508225838 13 315 6.4 11.3 0.00 0.00 0.00 93 1007.5
20260508225334 13 314 9.7 11.3 0.00 0.00 0.00 92 1007.4
20260508224832 13 319 8.0 14.5 0.00 0.00 0.00 92 1007.3
20260508224329 13 324 8.0 17.7 0.00 0.00 0.00 91 1007.5
20260508223827 13 328 16.1 19.3 0.00 0.00 0.00 91 1007.5
20260508223324 13 330 11.3 17.7 0.00 0.00 0.00 90 1007.3
20260508222822 13 31 8.0 17.7 0.00 0.00 0.00 91 1007.6
20260508222318 13 314 9.7 17.7 0.00 0.00 0.00 91 1007.5
20260508221815 13 321 8.0 11.3 0.00 0.00 0.00 91 1007.6
20260508221310 13 324 6.4 14.5 0.00 0.00 0.00 91 1007.6
20260508220807 14 332 12.9 14.5 0.00 0.00 0.00 91 1007.6
20260508220304 14 324 8.0 14.5 0.00 0.00 0.00 89 1007.6
20260508215800 14 329 6.4 11.3 0.00 0.00 0.00 88 1007.5
20260508215257 14 326 4.8 14.5 0.00 0.00 0.00 87 1007.5
20260508214754 15 324 14.5 16.1 0.00 0.00 0.00 85 1007.3
20260508214251 15 303 8.0 11.3 0.00 0.00 0.00 75 1007.3
20260508213747 15 293 6.4 16.1 0.00 0.00 0.00 75 1007.3
20260508213244 15 220 8.0 17.7 0.00 0.00 0.00 78 1007.5
20260508212741 15 279 12.9 32.2 0.00 0.00 0.00 75 1007.5
20260508212237 15 316 6.4 27.4 0.00 0.00 0.00 76 1007.7
20260508211733 15 310 4.8 11.3 0.00 0.00 0.00 81 1007.6
20260508211229 15 251 11.3 25.7 0.00 0.00 0.00 79 1007.6
20260508210727 16 243 6.4 17.7 0.00 0.00 0.00 71 1007.6
20260508210223 16 229 8.0 17.7 0.00 0.00 0.00 69 1007.3
20260508205720 16 248 12.9 33.8 0.00 0.00 0.00 66 1007.4
20260508205217 16 207 11.3 17.7 0.00 0.00 0.00 66 1007.3
20260508204713 16 230 4.8 17.7 0.00 0.00 0.00 67 1007.2
20260508204209 16 245 3.2 8.0 0.00 0.00 0.00 69 1007.3
20260508203706 16 305 9.7 32.2 0.00 0.00 0.00 63 1007.5
20260508203202 17 276 17.7 38.6 0.00 0.00 0.00 65 1007.3
20260508202658 17 232 8.0 32.2 0.00 0.00 0.00 60 1007.5
20260508202155 17 218 17.7 37.0 0.00 0.00 0.00 58 1007.2
20260508201652 17 211 19.3 40.2 0.00 0.00 0.00 60 1007.4
20260508201149 17 234 24.1 41.8 0.00 0.00 0.00 60 1007.3
20260508200646 18 164 4.8 20.9 0.00 0.00 0.00 60 1007.3
20260508200142 18 216 19.3 27.4 0.00 0.00 0.00 61 1007.3
20260508195638 18 216 46.7 54.7 0.00 0.00 0.00 56 1007.3
20260508195135 18 220 17.7 45.1 0.00 0.00 0.00 57 1007.3
20260508194631 18 221 25.7 45.1 0.00 0.00 0.00 56 1007.0
20260508194128 18 230 29.0 49.9 0.00 0.00 0.00 57 1007.1
20260508193625 19 211 27.4 41.8 0.00 0.00 0.00 56 1007.4
20260508193122 18 216 33.8 43.5 0.00 0.00 0.00 57 1007.4
20260508192618 18 220 20.9 38.6 0.00 0.00 0.00 58 1007.7
20260508192116 18 207 32.2 46.7 0.00 0.00 0.00 55 1007.6
20260508191613 19 211 38.6 45.1 0.00 0.00 0.00 55 1007.7
20260508191109 18 208 16.1 35.4 0.00 0.00 0.00 59 1007.9
20260508190607 18 212 19.3 37.0 0.00 0.00 0.00 58 1008.0
20260508190103 17 209 24.1 35.4 0.00 0.00 0.00 58 1007.9
20260508185600 18 236 9.7 38.6 0.00 0.00 0.00 58 1008.2
20260508185057 18 209 27.4 32.2 0.00 0.00 0.00 59 1008.0
20260508184555 17 224 25.7 30.6 0.00 0.00 0.00 60 1008.4
20260508184051 18 215 8.0 46.7 0.00 0.00 0.00 57 1008.5
20260508183542 18 221 9.7 33.8 0.00 0.00 0.00 57 1008.4
20260508183038 18 216 20.9 45.1 0.00 0.00 0.00 57 1008.2
20260508182534 18 209 22.5 22.5 0.00 0.00 0.00 58 1008.3
20260508182025 19 220 12.9 29.0 0.00 0.00 0.00 60 1008.2
20260508181520 20 283 9.7 22.5 0.00 0.00 0.00 56 1008.2
20260508181019 18 211 16.1 40.2 0.00 0.00 0.00 57 1008.2
20260508180515 18 221 14.5 32.2 0.00 0.00 0.00 57 1008.3
20260508180011 18 211 8.0 24.1 0.00 0.00 0.00 58 1008.5
20260508175508 18 223 11.3 29.0 0.00 0.00 0.00 59 1008.4
20260508175005 17 218 24.1 41.8 0.00 0.00 0.00 58 1008.4
20260508174503 18 220 14.5 29.0 0.00 0.00 0.00 60 1008.8
20260508174000 18 220 14.5 32.2 0.00 0.00 0.00 57 1008.8
20260508173457 18 217 9.7 24.1 0.00 0.00 0.00 58 1009.0
20260508172952 18 247 20.9 25.7 0.00 0.00 0.00 58 1009.1
20260508172449 18 208 12.9 25.7 0.00 0.00 0.00 61 1009.1
20260508171946 18 215 17.7 35.4 0.00 0.00 0.00 62 1009.1
20260508171443 18 200 20.9 29.0 0.00 0.00 0.00 61 1009.4
20260508170939 18 184 4.8 27.4 0.00 0.00 0.00 64 1009.6
20260508170437 17 203 8.0 30.6 0.00 0.00 0.00 65 1009.4
20260508165933 17 226 14.5 25.7 0.00 0.00 0.00 59 1009.7
20260508165432 17 245 4.8 12.9 0.00 0.00 0.00 61 1009.6
20260508164927 16 211 12.9 24.1 0.00 0.00 0.00 60 1010.2
20260508164424 17 278 16.1 25.7 0.00 0.00 0.00 64 1010.4
20260508163922 17 218 17.7 25.7 0.00 0.00 0.00 60 1010.5
20260508163419 16 299 3.2 16.1 0.00 0.00 0.00 61 1010.6
20260508162914 16 239 11.3 17.7 0.00 0.00 0.00 64 1010.5
20260508162412 16 219 11.3 19.3 0.00 0.00 0.00 62 1010.7
20260508161909 16 214 6.4 29.0 0.00 0.00 0.00 62 1010.9
20260508161406 16 150 3.2 22.5 0.00 0.00 0.00 63 1010.7
20260508160903 16 241 4.8 32.2 0.00 0.00 0.00 65 1011.0
20260508160402 16 306 3.2 25.7 0.00 0.00 0.00 64 1011.0
20260508155857 15 233 12.9 22.5 0.00 0.00 0.00 65 1010.8
20260508155355 15 225 11.3 33.8 0.00 0.00 0.00 68 1011.1
20260508154852 15 268 9.7 19.3 0.00 0.00 0.00 65 1011.2
20260508154349 15 205 12.9 16.1 0.00 0.00 0.00 68 1011.1
20260508153846 14 219 9.7 20.9 0.00 0.00 0.00 68 1011.0
20260508153343 13 217 20.9 24.1 0.00 0.00 0.00 68 1010.9
20260508152839 13 225 12.9 19.3 0.00 0.00 0.00 71 1011.3
20260508152336 13 206 14.5 19.3 0.00 0.00 0.00 70 1011.2
20260508151832 13 214 8.0 24.1 0.00 0.00 0.00 70 1011.1
20260508151330 13 224 6.4 30.6 0.00 0.00 0.00 68 1011.0
20260508150826 13 205 12.9 17.7 0.00 0.00 0.00 68 1011.3
20260508150323 13 217 9.7 27.4 0.00 0.00 0.00 69 1011.4
20260508145819 13 215 20.9 38.6 0.00 0.00 0.00 68 1011.5
20260508145315 13 215 14.5 24.1 0.00 0.00 0.00 70 1011.4
20260508144812 12 227 14.5 30.6 0.00 0.00 0.00 71 1011.1
20260508144310 12 214 24.1 24.1 0.00 0.00 0.00 72 1011.3
20260508143807 12 211 19.3 27.4 0.00 0.00 0.00 71 1011.6
20260508143304 12 215 8.0 24.1 0.00 0.00 0.00 72 1011.2
20260508142800 11 214 16.1 19.3 0.00 0.00 0.00 74 1011.2
20260508142257 11 212 6.4 16.1 0.00 0.00 0.00 75 1011.1
20260508141754 11 225 9.7 22.5 0.00 0.00 0.00 75 1011.0
20260508141251 11 207 20.9 20.9 0.00 0.00 0.00 75 1011.3
20260508140748 11 200 14.5 17.7 0.00 0.00 0.00 77 1011.1
20260508140245 11 213 11.3 20.9 0.00 0.00 0.00 76 1011.1
20260508135741 11 180 6.4 16.1 0.00 0.00 0.00 74 1011.3
20260508135237 11 209 20.9 24.1 0.00 0.00 0.00 73 1011.2
20260508134733 10 219 14.5 24.1 0.00 0.00 0.00 73 1011.0
20260508134230 10 208 17.7 17.7 0.00 0.00 0.00 75 1011.1
20260508133727 10 217 9.7 19.3 0.00 0.00 0.00 74 1011.2
20260508133225 10 195 14.5 20.9 0.00 0.00 0.00 77 1011.3
20260508132722 10 217 9.7 20.9 0.00 0.00 0.00 76 1011.2
20260508132220 10 215 6.4 17.7 0.00 0.00 0.00 76 1011.2
20260508131715 10 199 6.4 19.3 0.00 0.00 0.00 76 1011.4
20260508131212 10 202 4.8 12.9 0.00 0.00 0.00 76 1011.1
20260508130708 10 204 8.0 16.1 0.00 0.00 0.00 76 1011.3
20260508130205 10 204 3.2 17.7 0.00 0.00 0.00 76 1011.3
20260508125700 10 194 6.4 14.5 0.00 0.00 0.00 76 1011.4
20260508125157 10 209 11.3 19.3 0.00 0.00 0.00 76 1011.2
20260508124655 10 222 11.3 17.7 0.00 0.00 0.00 77 1011.2
20260508124152 10 200 9.7 16.1 0.00 0.00 0.00 76 1011.2
20260508123651 10 309 3.2 14.5 0.00 0.00 0.00 77 1011.3
20260508123149 10 243 8.0 25.7 0.00 0.00 0.00 78 1011.3
20260508122644 10 196 6.4 19.3 0.00 0.00 0.00 78 1011.1
20260508122141 9 206 6.4 12.9 0.00 0.00 0.00 78 1011.2
20260508121639 9 198 4.8 20.9 0.00 0.00 0.00 78 1011.1
20260508121137 9 197 6.4 11.3 0.00 0.00 0.00 78 1011.2
20260508120634 9 210 12.9 19.3 0.00 0.00 0.00 78 1011.1
20260508120133 9 216 12.9 17.7 0.00 0.00 0.00 78 1010.9
20260508115630 8 215 12.9 17.7 0.00 0.00 0.00 79 1010.9
20260508115126 8 213 12.9 19.3 0.00 0.00 0.00 79 1011.0
20260508114624 8 197 9.7 17.7 0.00 0.00 0.00 79 1011.0
20260508114119 8 197 8.0 19.3 0.00 0.00 0.00 79 1011.1
20260508113617 8 198 6.4 19.3 0.00 0.00 0.00 79 1010.9
20260508113115 8 211 4.8 14.5 0.00 0.00 0.00 80 1010.7
20260508112611 8 195 8.0 12.9 0.00 0.00 0.00 80 1011.0
20260508112108 8 210 11.3 12.9 0.00 0.00 0.00 80 1010.7
20260508111605 8 212 8.0 12.9 0.00 0.00 0.00 79 1010.7
20260508111102 8 195 3.2 9.7 0.00 0.00 0.00 81 1010.8
20260508110600 8 205 6.4 11.3 0.00 0.00 0.00 80 1010.8
20260508110056 8 216 9.7 17.7 0.00 0.00 0.00 78 1010.8
20260508105551 8 201 8.0 14.5 0.00 0.00 0.00 80 1010.8
20260508105048 8 201 6.4 11.3 0.00 0.00 0.00 80 1010.6
20260508104546 8 204 11.3 16.1 0.00 0.00 0.00 79 1010.7
20260508104042 8 206 4.8 14.5 0.00 0.00 0.00 80 1010.7
20260508103539 7 206 11.3 14.5 0.00 0.00 0.00 80 1010.9
20260508103037 7 199 8.0 9.7 0.00 0.00 0.00 80 1010.6
20260508102534 7 189 4.8 11.3 0.00 0.00 0.00 80 1010.5
20260508102032 7 200 6.4 11.3 0.00 0.00 0.00 80 1010.5
20260508101529 7 183 3.2 9.7 0.00 0.00 0.00 80 1010.6
20260508101026 7 206 6.4 11.3 0.00 0.00 0.00 80 1010.7
20260508100524 7 200 4.8 9.7 0.00 0.00 0.00 81 1010.5
20260508100021 7 173 3.2 9.7 0.00 0.00 0.00 80 1010.5
20260508095518 7 197 4.8 12.9 0.00 0.00 0.00 79 1010.3
20260508095015 7 176 4.8 8.0 0.00 0.00 0.00 78 1010.3
20260508094512 8 185 4.8 6.4 0.00 0.00 0.00 77 1010.6
20260508094009 7 202 6.4 11.3 0.00 0.00 0.00 78 1010.5
20260508093506 8 203 6.4 17.7 0.00 0.00 0.00 77 1010.4
20260508093004 8 213 8.0 14.5 0.00 0.00 0.00 78 1010.6
20260508092500 8 208 4.8 14.5 0.00 0.00 0.00 77 1010.5
20260508092000 7 217 9.7 16.1 0.00 0.00 0.00 79 1010.5
20260508091456 7 219 12.9 19.3 0.00 0.00 0.00 79 1010.6
20260508090953 7 202 8.0 14.5 0.00 0.00 0.00 78 1010.7
20260508090452 7 196 8.0 12.9 0.00 0.00 0.00 79 1010.6
20260508085947 7 204 9.7 16.1 0.00 0.00 0.00 79 1010.5
20260508085444 7 214 8.0 12.9 0.00 0.00 0.00 79 1010.6
20260508084941 7 221 8.0 14.5 0.00 0.00 0.00 79 1010.8
20260508084437 7 189 6.4 14.5 0.00 0.00 0.00 79 1010.6
20260508083936 7 175 4.8 11.3 0.00 0.00 0.00 80 1010.6
20260508083432 7 216 8.0 11.3 0.00 0.00 0.00 78 1010.6
20260508082932 8 205 6.4 11.3 0.00 0.00 0.00 77 1010.4
20260508082430 8 194 6.4 12.9 0.00 0.00 0.00 78 1010.7
20260508081928 8 203 9.7 19.3 0.00 0.00 0.00 76 1010.5
20260508081424 8 208 6.4 14.5 0.00 0.00 0.00 76 1010.5
20260508080920 8 208 12.9 12.9 0.00 0.00 0.00 78 1010.8
20260508080419 8 196 6.4 11.3 0.00 0.00 0.00 76 1010.7
20260508075915 8 213 9.7 11.3 0.00 0.00 0.00 75 1010.7
20260508075412 8 195 6.4 11.3 0.00 0.00 0.00 76 1010.8
20260508074910 8 152 3.2 9.7 0.00 0.00 0.00 76 1010.6
20260508074407 8 201 8.0 11.3 0.00 0.00 0.00 77 1010.7
20260508073904 8 216 9.7 12.9 0.00 0.00 0.00 77 1010.8
20260508073402 8 199 6.4 16.1 0.00 0.00 0.00 78 1010.9
20260508072858 8 197 6.4 8.0 0.00 0.00 0.00 78 1010.7
20260508072354 8 208 6.4 9.7 0.00 0.00 0.00 79 1010.7
20260508071852 8 175 1.6 11.3 0.00 0.00 0.00 78 1011.0
20260508071350 8 162 3.2 9.7 0.00 0.00 0.00 78 1011.0
20260508070848 8 201 8.0 12.9 0.00 0.00 0.00 76 1010.9
20260508070345 8 198 6.4 11.3 0.00 0.00 0.00 76 1010.9
20260508065843 8 198 6.4 12.9 0.00 0.00 0.00 76 1011.0
20260508065341 8 207 4.8 9.7 0.00 0.00 0.00 76 1011.0
20260508064838 8 186 6.4 12.9 0.00 0.00 0.00 76 1011.2
20260508064330 8 136 1.6 6.4 0.00 0.00 0.00 77 1011.0
20260508063828 8 170 0.0 4.8 0.00 0.00 0.00 77 1010.9
20260508063325 8 174 3.2 9.7 0.00 0.00 0.00 76 1011.0
20260508062822 8 178 4.8 4.8 0.00 0.00 0.00 77 1011.2
20260508062320 9 192 3.2 11.3 0.00 0.00 0.00 75 1011.1
20260508061816 9 196 4.8 9.7 0.00 0.00 0.00 75 1011.2
20260508061313 9 196 3.2 4.8 0.00 0.00 0.00 75 1011.4
20260508060810 9 205 6.4 8.0 0.00 0.00 0.00 74 1011.4
20260508060308 9 206 1.6 11.3 0.00 0.00 0.00 73 1011.2
20260508055803 9 213 8.0 8.0 0.00 0.00 0.00 74 1011.0
20260508055301 10 208 6.4 9.7 0.00 0.00 0.00 73 1011.3
20260508054756 10 217 1.6 6.4 0.00 0.00 0.00 73 1011.3
20260508054255 10 222 8.0 9.7 0.00 0.00 0.00 71 1011.3
20260508053751 10 201 8.0 12.9 0.00 0.00 0.00 70 1011.1
20260508053249 10 197 4.8 14.5 0.00 0.00 0.00 71 1011.0
20260508052746 10 219 6.4 12.9 0.00 0.00 0.00 72 1011.3
20260508052243 10 204 9.7 22.5 0.00 0.00 0.00 72 1011.1
20260508051739 10 212 14.5 19.3 0.00 0.00 0.00 72 1011.3
20260508051235 10 213 11.3 22.5 0.00 0.00 0.00 71 1011.3
20260508050731 11 210 3.2 19.3 0.00 0.00 0.00 69 1011.4
20260508050228 11 239 8.0 37.0 0.00 0.00 0.00 67 1011.3
20260508045724 11 221 17.7 35.4 0.00 0.00 0.00 70 1011.1
20260508045222 11 220 20.9 35.4 0.00 0.00 0.00 68 1011.2
20260508044719 10 216 4.8 48.3 0.00 0.00 0.00 73 1011.8
20260508044216 10 325 29.0 38.6 0.00 0.00 0.00 80 1012.0
20260508043712 10 149 1.6 12.9 0.00 0.00 0.00 74 1011.4
20260508043210 10 192 3.2 16.1 0.00 0.00 0.00 75 1010.9
20260508042706 10 217 4.8 9.7 0.00 0.00 0.00 76 1011.0
20260508042204 10 199 14.5 14.5 0.00 0.00 0.00 76 1010.9
20260508041700 10 159 3.2 14.5 0.00 0.00 0.00 75 1010.9
20260508041157 10 165 1.6 9.7 0.00 0.00 0.00 77 1011.2
20260508040653 10 129 0.0 6.4 0.00 0.00 0.00 77 1011.0
20260508040151 10 149 8.0 11.3 0.00 0.00 0.00 77 1010.7
20260508035648 10 133 4.8 9.7 0.00 0.00 0.00 77 1010.9
20260508035145 10 115 1.6 8.0 0.00 0.00 0.00 77 1010.9
20260508034641 10 116 4.8 8.0 0.00 0.00 0.00 78 1011.0
20260508034138 9 56 1.6 4.8 0.00 0.00 0.00 79 1011.2
20260508033636 10 157 3.2 8.0 0.00 0.00 0.00 78 1011.1
20260508033134 9 101 1.6 9.7 0.00 0.00 0.00 78 1011.2
20260508032630 9 163 1.6 6.4 0.00 0.00 0.00 78 1011.1
20260508032128 9 152 3.2 4.8 0.00 0.00 0.00 79 1011.1
20260508031625 9 127 3.2 6.4 0.00 0.00 0.00 79 1011.2
20260508031121 9 171 1.6 8.0 0.00 0.00 0.00 79 1011.1
20260508030617 9 195 3.2 4.8 0.00 0.00 0.00 79 1011.4
20260508030115 9 208 3.2 4.8 0.00 0.00 0.00 79 1011.4
20260508025611 10 154 0.0 8.0 0.00 0.00 0.00 80 1011.5
20260508025109 9 169 1.6 4.8 0.00 0.00 0.00 80 1011.3
20260508024604 9 164 1.6 4.8 0.00 0.00 0.00 80 1011.6
20260508024102 9 158 1.6 3.2 0.00 0.00 0.00 78 1011.4
20260508023558 9 155 1.6 3.2 0.00 0.00 0.00 81 1011.5
20260508023055 10 205 3.2 6.4 0.00 0.00 0.00 80 1011.5
20260508022551 9 139 0.0 4.8 0.00 0.00 0.00 82 1011.2
20260508022049 10 182 1.6 4.8 0.00 0.00 0.00 82 1011.0
20260508021544 9 124 3.2 4.8 0.00 0.00 0.00 78 1011.3
20260508021040 10 111 1.6 1.6 0.00 0.00 0.00 81 1011.5
20260508020538 10 131 0.0 3.2 0.00 0.00 0.00 76 1011.5
20260508020036 10 139 1.6 4.8 0.00 0.00 0.00 77 1011.6
20260508015533 10 130 3.2 4.8 0.00 0.00 0.00 78 1011.1
20260508015030 10 140 0.0 4.8 0.00 0.00 0.00 77 1011.2
20260508014526 10 133 3.2 4.8 0.00 0.00 0.00 76 1011.1
20260508014022 10 135 0.0 3.2 0.00 0.00 0.00 77 1011.1
20260508013518 10 118 0.0 1.6 0.00 0.00 0.00 79 1011.2
20260508013016 10 232 0.0 4.8 0.00 0.00 0.00 77 1011.4
20260508012513 10 199 3.2 4.8 0.00 0.00 0.00 72 1010.9
20260508012010 10 162 3.2 4.8 0.00 0.00 0.00 73 1011.0
20260508011509 10 189 4.8 6.4 0.00 0.00 0.00 72 1011.2
20260508011006 10 174 1.6 4.8 0.00 0.00 0.00 71 1011.3
20260508010502 10 180 3.2 8.0 0.00 0.00 0.00 70 1011.1
20260508005959 10 193 3.2 11.3 0.00 0.00 0.00 70 1011.1
20260508005450 10 186 3.2 6.4 0.00 0.00 0.00 73 1011.3
20260508004947 10 229 3.2 4.8 0.00 0.00 0.00 74 1011.6
20260508004443 11 237 4.8 9.7 0.00 0.00 0.00 68 1011.4
20260508003940 11 279 1.6 9.7 0.00 0.00 0.00 70 1011.4
20260508003436 11 197 3.2 8.0 0.00 0.00 0.00 69 1011.0
20260508002934 11 257 6.4 9.7 0.00 0.00 0.00 67 1011.3
20260508002430 11 328 4.8 11.3 0.00 0.00 0.00 65 1011.6
20260508001926 11 263 6.4 11.3 0.00 0.00 0.00 66 1011.4
20260508001423 11 307 9.7 20.9 0.00 0.00 0.00 63 1011.4
20260508000920 11 289 1.6 17.7 0.00 0.00 0.00 66 1011.5
20260508000415 11 335 4.8 27.4 0.00 0.00 0.00 64 1011.3
20260507235913 11 262 8.0 22.5 0.00 0.00 0.00 61 1011.3
20260507235410 11 319 16.1 19.3 0.00 0.00 0.00 62 1011.3
20260507234907 11 302 4.8 12.9 0.00 0.00 0.00 63 1011.3
20260507234403 11 223 6.4 22.5 0.00 0.00 0.00 62 1011.3
20260507233900 11 337 8.0 16.1 0.00 0.00 0.00 58 1011.5
20260507233357 12 305 12.9 35.4 0.00 0.00 0.00 57 1011.2
20260507232855 12 317 20.9 33.8 0.00 0.00 0.00 52 1011.2
20260507232351 12 314 19.3 29.0 0.00 0.00 0.00 55 1011.3
20260507231849 12 292 24.1 30.6 0.00 0.00 0.00 51 1011.3